Year,Month,Day,Hour,Minute,Value (Times are PST for temperature in C)
2011,08,14,00,00,15.30
2011,08,14,00,01,15.30
2011,08,14,00,02,15.30
2011,08,14,00,03,15.30
2011,08,14,00,04,15.30
2011,08,14,00,05,15.30
2011,08,14,00,06,15.30
2011,08,14,00,07,15.30
2011,08,14,00,08,15.30
2011,08,14,00,09,15.30
2011,08,14,00,10,15.30
2011,08,14,00,11,15.30
2011,08,14,00,12,15.30
2011,08,14,00,13,15.30
2011,08,14,00,14,15.30
2011,08,14,00,15,15.20
2011,08,14,00,16,15.20
2011,08,14,00,17,15.20
2011,08,14,00,18,15.20
2011,08,14,00,19,15.20
2011,08,14,00,20,15.20
2011,08,14,00,21,15.20
2011,08,14,00,22,15.20
2011,08,14,00,23,15.20
2011,08,14,00,24,15.10
2011,08,14,00,25,15.10
2011,08,14,00,26,15.10
2011,08,14,00,27,15.10
2011,08,14,00,28,15.10
2011,08,14,00,29,15.00
2011,08,14,00,30,15.00
2011,08,14,00,31,15.00
2011,08,14,00,32,15.00
2011,08,14,00,33,15.00
2011,08,14,00,34,15.00
2011,08,14,00,35,15.00
2011,08,14,00,36,15.00
2011,08,14,00,37,15.00
2011,08,14,00,38,15.00
2011,08,14,00,39,15.00
2011,08,14,00,40,15.00
2011,08,14,00,41,15.00
2011,08,14,00,42,15.00
2011,08,14,00,43,15.00
2011,08,14,00,44,15.00
2011,08,14,00,45,15.00
2011,08,14,00,46,15.00
2011,08,14,00,47,14.90
2011,08,14,00,48,14.90
2011,08,14,00,49,14.90
2011,08,14,00,50,14.90
2011,08,14,00,51,14.80
2011,08,14,00,52,14.80
2011,08,14,00,53,14.80
2011,08,14,00,54,14.80
2011,08,14,00,55,14.80
2011,08,14,00,56,14.80
2011,08,14,00,57,14.80
2011,08,14,00,58,14.70
2011,08,14,00,59,14.70
2011,08,14,01,00,14.70
2011,08,14,01,01,14.70
2011,08,14,01,02,14.70
2011,08,14,01,03,14.70
2011,08,14,01,04,14.70
2011,08,14,01,05,14.70
2011,08,14,01,06,14.70
2011,08,14,01,07,14.70
2011,08,14,01,08,14.70
2011,08,14,01,09,14.70
2011,08,14,01,10,14.70
2011,08,14,01,11,14.70
2011,08,14,01,12,14.70
2011,08,14,01,13,14.70
2011,08,14,01,14,14.70
2011,08,14,01,15,14.80
2011,08,14,01,16,14.80
2011,08,14,01,17,14.80
2011,08,14,01,18,14.80
2011,08,14,01,19,14.80
2011,08,14,01,20,14.80
2011,08,14,01,21,14.80
2011,08,14,01,22,14.80
2011,08,14,01,23,14.80
2011,08,14,01,24,14.80
2011,08,14,01,25,14.80
2011,08,14,01,26,14.80
2011,08,14,01,27,14.80
2011,08,14,01,28,14.80
2011,08,14,01,29,14.80
2011,08,14,01,30,14.70
2011,08,14,01,31,14.70
2011,08,14,01,32,14.70
2011,08,14,01,33,14.70
2011,08,14,01,34,14.70
2011,08,14,01,35,14.70
2011,08,14,01,36,14.70
2011,08,14,01,37,14.70
2011,08,14,01,38,14.60
2011,08,14,01,39,14.60
2011,08,14,01,40,14.60
2011,08,14,01,41,14.60
2011,08,14,01,42,14.60
2011,08,14,01,43,14.60
2011,08,14,01,44,14.60
2011,08,14,01,45,14.60
2011,08,14,01,46,14.60
2011,08,14,01,47,14.60
2011,08,14,01,48,14.60
2011,08,14,01,49,14.60
2011,08,14,01,50,14.60
2011,08,14,01,51,14.60
2011,08,14,01,52,14.60
2011,08,14,01,53,14.60
2011,08,14,01,54,14.60
2011,08,14,01,55,14.60
2011,08,14,01,56,14.60
2011,08,14,01,57,14.60
2011,08,14,01,58,14.60
2011,08,14,01,59,14.60
2011,08,14,02,00,14.60
2011,08,14,02,01,14.60
2011,08,14,02,02,14.60
2011,08,14,02,03,14.60
2011,08,14,02,04,14.60
2011,08,14,02,05,14.60
2011,08,14,02,06,14.60
2011,08,14,02,07,14.60
2011,08,14,02,08,14.60
2011,08,14,02,09,14.60
2011,08,14,02,10,14.60
2011,08,14,02,11,14.60
2011,08,14,02,12,14.60
2011,08,14,02,13,14.60
2011,08,14,02,14,14.60
2011,08,14,02,15,14.60
2011,08,14,02,16,14.60
2011,08,14,02,17,14.60
2011,08,14,02,18,14.60
2011,08,14,02,19,14.60
2011,08,14,02,20,14.60
2011,08,14,02,21,14.60
2011,08,14,02,22,14.60
2011,08,14,02,23,14.60
2011,08,14,02,24,14.60
2011,08,14,02,25,14.60
2011,08,14,02,26,14.60
2011,08,14,02,27,14.60
2011,08,14,02,28,14.50
2011,08,14,02,29,14.50
2011,08,14,02,30,14.50
2011,08,14,02,31,14.50
2011,08,14,02,32,14.50
2011,08,14,02,33,14.40
2011,08,14,02,34,14.40
2011,08,14,02,35,14.40
2011,08,14,02,36,14.40
2011,08,14,02,37,14.40
2011,08,14,02,38,14.40
2011,08,14,02,39,14.30
2011,08,14,02,40,14.30
2011,08,14,02,41,14.30
2011,08,14,02,42,14.30
2011,08,14,02,43,14.30
2011,08,14,02,44,14.30
2011,08,14,02,45,14.30
2011,08,14,02,46,14.30
2011,08,14,02,47,14.30
2011,08,14,02,48,14.30
2011,08,14,02,49,14.30
2011,08,14,02,50,14.30
2011,08,14,02,51,14.30
2011,08,14,02,52,14.30
2011,08,14,02,53,14.30
2011,08,14,02,54,14.20
2011,08,14,02,55,14.20
2011,08,14,02,56,14.20
2011,08,14,02,57,14.20
2011,08,14,02,58,14.20
2011,08,14,02,59,14.20
2011,08,14,03,00,14.10
2011,08,14,03,01,14.10
2011,08,14,03,02,14.10
2011,08,14,03,03,14.00
2011,08,14,03,04,14.00
2011,08,14,03,05,13.90
2011,08,14,03,06,13.90
2011,08,14,03,07,13.90
2011,08,14,03,08,13.90
2011,08,14,03,09,13.90
2011,08,14,03,10,13.90
2011,08,14,03,11,13.80
2011,08,14,03,12,13.80
2011,08,14,03,13,13.80
2011,08,14,03,14,13.80
2011,08,14,03,15,13.80
2011,08,14,03,16,13.80
2011,08,14,03,17,13.80
2011,08,14,03,18,13.70
2011,08,14,03,19,13.70
2011,08,14,03,20,13.70
2011,08,14,03,21,13.70
2011,08,14,03,22,13.70
2011,08,14,03,23,13.70
2011,08,14,03,24,13.60
2011,08,14,03,25,13.60
2011,08,14,03,26,13.60
2011,08,14,03,27,13.60
2011,08,14,03,28,13.60
2011,08,14,03,29,13.60
2011,08,14,03,30,13.60
2011,08,14,03,31,13.60
2011,08,14,03,32,13.60
2011,08,14,03,33,13.60
2011,08,14,03,34,13.60
2011,08,14,03,35,13.60
2011,08,14,03,36,13.50
2011,08,14,03,37,13.50
2011,08,14,03,38,13.50
2011,08,14,03,39,13.50
2011,08,14,03,40,13.50
2011,08,14,03,41,13.40
2011,08,14,03,42,13.40
2011,08,14,03,43,13.40
2011,08,14,03,44,13.40
2011,08,14,03,45,13.40
2011,08,14,03,46,13.40
2011,08,14,03,47,13.40
2011,08,14,03,48,13.40
2011,08,14,03,49,13.40
2011,08,14,03,50,13.40
2011,08,14,03,51,13.40
2011,08,14,03,52,13.40
2011,08,14,03,53,13.40
2011,08,14,03,54,13.40
2011,08,14,03,55,13.40
2011,08,14,03,56,13.40
2011,08,14,03,57,13.40
2011,08,14,03,58,13.40
2011,08,14,03,59,13.30
2011,08,14,04,00,13.30
2011,08,14,04,01,13.30
2011,08,14,04,02,13.30
2011,08,14,04,03,13.30
2011,08,14,04,04,13.30
2011,08,14,04,05,13.30
2011,08,14,04,06,13.30
2011,08,14,04,07,13.30
2011,08,14,04,08,13.30
2011,08,14,04,09,13.20
2011,08,14,04,10,13.20
2011,08,14,04,11,13.20
2011,08,14,04,12,13.20
2011,08,14,04,13,13.20
2011,08,14,04,14,13.20
2011,08,14,04,15,13.10
2011,08,14,04,16,13.10
2011,08,14,04,17,13.10
2011,08,14,04,18,13.10
2011,08,14,04,19,13.10
2011,08,14,04,20,13.10
2011,08,14,04,21,13.10
2011,08,14,04,22,13.00
2011,08,14,04,23,13.00
2011,08,14,04,24,13.00
2011,08,14,04,25,13.00
2011,08,14,04,26,13.00
2011,08,14,04,27,13.00
2011,08,14,04,28,13.00
2011,08,14,04,29,13.00
2011,08,14,04,30,13.00
2011,08,14,04,31,13.00
2011,08,14,04,32,12.90
2011,08,14,04,33,12.90
2011,08,14,04,34,12.90
2011,08,14,04,35,12.90
2011,08,14,04,36,12.90
2011,08,14,04,37,12.90
2011,08,14,04,38,12.90
2011,08,14,04,39,12.90
2011,08,14,04,40,12.90
2011,08,14,04,41,12.90
2011,08,14,04,42,12.90
2011,08,14,04,43,12.90
2011,08,14,04,44,12.80
2011,08,14,04,45,12.80
2011,08,14,04,46,12.80
2011,08,14,04,47,12.80
2011,08,14,04,48,12.80
2011,08,14,04,49,12.80
2011,08,14,04,50,12.80
2011,08,14,04,51,12.80
2011,08,14,04,52,12.70
2011,08,14,04,53,12.70
2011,08,14,04,54,12.70
2011,08,14,04,55,12.70
2011,08,14,04,56,12.70
2011,08,14,04,57,12.70
2011,08,14,04,58,12.70
2011,08,14,04,59,12.70
2011,08,14,05,00,12.70
2011,08,14,05,01,12.70
2011,08,14,05,02,12.80
2011,08,14,05,03,12.80
2011,08,14,05,04,12.70
2011,08,14,05,05,12.70
2011,08,14,05,06,12.80
2011,08,14,05,07,12.70
2011,08,14,05,08,12.80
2011,08,14,05,09,12.80
2011,08,14,05,10,12.80
2011,08,14,05,11,12.80
2011,08,14,05,12,12.80
2011,08,14,05,13,12.80
2011,08,14,05,14,12.80
2011,08,14,05,15,12.80
2011,08,14,05,16,12.80
2011,08,14,05,17,12.70
2011,08,14,05,18,12.70
2011,08,14,05,19,12.70
2011,08,14,05,20,12.70
2011,08,14,05,21,12.70
2011,08,14,05,22,12.70
2011,08,14,05,23,12.70
2011,08,14,05,24,12.70
2011,08,14,05,25,12.70
2011,08,14,05,26,12.70
2011,08,14,05,27,12.70
2011,08,14,05,28,12.70
2011,08,14,05,29,12.60
2011,08,14,05,30,12.60
2011,08,14,05,31,12.60
2011,08,14,05,32,12.60
2011,08,14,05,33,12.60
2011,08,14,05,34,12.50
2011,08,14,05,35,12.50
2011,08,14,05,36,12.50
2011,08,14,05,37,12.50
2011,08,14,05,38,12.40
2011,08,14,05,39,12.40
2011,08,14,05,40,12.40
2011,08,14,05,41,12.40
2011,08,14,05,42,12.40
2011,08,14,05,43,12.40
2011,08,14,05,44,12.40
2011,08,14,05,45,12.40
2011,08,14,05,46,12.40
2011,08,14,05,47,12.40
2011,08,14,05,48,12.40
2011,08,14,05,49,12.40
2011,08,14,05,50,12.40
2011,08,14,05,51,12.30
2011,08,14,05,52,12.30
2011,08,14,05,53,12.30
2011,08,14,05,54,12.30
2011,08,14,05,55,12.30
2011,08,14,05,56,12.30
2011,08,14,05,57,12.20
2011,08,14,05,58,12.20
2011,08,14,05,59,12.20
2011,08,14,06,00,12.20
2011,08,14,06,01,12.20
2011,08,14,06,02,12.20
2011,08,14,06,03,12.10
2011,08,14,06,04,12.10
2011,08,14,06,05,12.10
2011,08,14,06,06,12.10
2011,08,14,06,07,12.10
2011,08,14,06,08,12.00
2011,08,14,06,09,12.00
2011,08,14,06,10,12.00
2011,08,14,06,11,11.90
2011,08,14,06,12,11.90
2011,08,14,06,13,11.90
2011,08,14,06,14,11.90
2011,08,14,06,15,11.90
2011,08,14,06,16,11.80
2011,08,14,06,17,11.80
2011,08,14,06,18,11.80
2011,08,14,06,19,11.80
2011,08,14,06,20,11.80
2011,08,14,06,21,11.80
2011,08,14,06,22,11.80
2011,08,14,06,23,11.70
2011,08,14,06,24,11.70
2011,08,14,06,25,11.70
2011,08,14,06,26,11.70
2011,08,14,06,27,11.70
2011,08,14,06,28,11.70
2011,08,14,06,29,11.70
2011,08,14,06,30,11.70
2011,08,14,06,31,11.70
2011,08,14,06,32,11.70
2011,08,14,06,33,11.70
2011,08,14,06,34,11.70
2011,08,14,06,35,11.60
2011,08,14,06,36,11.60
2011,08,14,06,37,11.60
2011,08,14,06,38,11.60
2011,08,14,06,39,11.60
2011,08,14,06,40,11.60
2011,08,14,06,41,11.60
2011,08,14,06,42,11.60
2011,08,14,06,43,11.60
2011,08,14,06,44,11.50
2011,08,14,06,45,11.50
2011,08,14,06,46,11.50
2011,08,14,06,47,11.50
2011,08,14,06,48,11.50
2011,08,14,06,49,11.50
2011,08,14,06,50,11.50
2011,08,14,06,51,11.50
2011,08,14,06,52,11.50
2011,08,14,06,53,11.50
2011,08,14,06,54,11.50
2011,08,14,06,55,11.40
2011,08,14,06,56,11.50
2011,08,14,06,57,11.50
2011,08,14,06,58,11.50
2011,08,14,06,59,11.50
2011,08,14,07,00,11.50
2011,08,14,07,01,11.50
2011,08,14,07,02,11.50
2011,08,14,07,03,11.50
2011,08,14,07,04,11.60
2011,08,14,07,05,11.60
2011,08,14,07,06,11.60
2011,08,14,07,07,11.60
2011,08,14,07,08,11.60
2011,08,14,07,09,11.60
2011,08,14,07,10,11.60
2011,08,14,07,11,11.60
2011,08,14,07,12,11.60
2011,08,14,07,13,11.70
2011,08,14,07,14,11.70
2011,08,14,07,15,11.70
2011,08,14,07,16,11.70
2011,08,14,07,17,11.80
2011,08,14,07,18,11.80
2011,08,14,07,19,11.80
2011,08,14,07,20,11.80
2011,08,14,07,21,11.90
2011,08,14,07,22,11.90
2011,08,14,07,23,11.90
2011,08,14,07,24,12.00
2011,08,14,07,25,12.00
2011,08,14,07,26,12.00
2011,08,14,07,27,12.10
2011,08,14,07,28,12.10
2011,08,14,07,29,12.10
2011,08,14,07,30,12.20
2011,08,14,07,31,12.20
2011,08,14,07,32,12.20
2011,08,14,07,33,12.30
2011,08,14,07,34,12.30
2011,08,14,07,35,12.30
2011,08,14,07,36,12.40
2011,08,14,07,37,12.40
2011,08,14,07,38,12.40
2011,08,14,07,39,12.50
2011,08,14,07,40,12.50
2011,08,14,07,41,12.50
2011,08,14,07,42,12.60
2011,08,14,07,43,12.60
2011,08,14,07,44,12.60
2011,08,14,07,45,12.70
2011,08,14,07,46,12.70
2011,08,14,07,47,12.70
2011,08,14,07,48,12.70
2011,08,14,07,49,12.70
2011,08,14,07,50,12.80
2011,08,14,07,51,12.80
2011,08,14,07,52,12.80
2011,08,14,07,53,12.80
2011,08,14,07,54,12.90
2011,08,14,07,55,12.90
2011,08,14,07,56,12.90
2011,08,14,07,57,12.90
2011,08,14,07,58,13.00
2011,08,14,07,59,13.00
2011,08,14,08,00,13.00
2011,08,14,08,01,13.10
2011,08,14,08,02,13.10
2011,08,14,08,03,13.10
2011,08,14,08,04,13.10
2011,08,14,08,05,13.10
2011,08,14,08,06,13.10
2011,08,14,08,07,13.20
2011,08,14,08,08,13.20
2011,08,14,08,09,13.20
2011,08,14,08,10,13.20
2011,08,14,08,11,13.20
2011,08,14,08,12,13.20
2011,08,14,08,13,13.20
2011,08,14,08,14,13.20
2011,08,14,08,15,13.20
2011,08,14,08,16,13.10
2011,08,14,08,17,13.10
2011,08,14,08,18,13.10
2011,08,14,08,19,13.10
2011,08,14,08,20,13.10
2011,08,14,08,21,13.10
2011,08,14,08,22,13.10
2011,08,14,08,23,13.10
2011,08,14,08,24,13.10
2011,08,14,08,25,13.10
2011,08,14,08,26,13.10
2011,08,14,08,27,13.20
2011,08,14,08,28,13.20
2011,08,14,08,29,13.20
2011,08,14,08,30,13.30
2011,08,14,08,31,13.30
2011,08,14,08,32,13.40
2011,08,14,08,33,13.40
2011,08,14,08,34,13.50
2011,08,14,08,35,13.60
2011,08,14,08,36,13.70
2011,08,14,08,37,13.70
2011,08,14,08,38,13.80
2011,08,14,08,39,13.90
2011,08,14,08,40,14.00
2011,08,14,08,41,14.10
2011,08,14,08,42,14.20
2011,08,14,08,43,14.30
2011,08,14,08,44,14.30
2011,08,14,08,45,14.40
2011,08,14,08,46,14.50
2011,08,14,08,47,14.60
2011,08,14,08,48,14.70
2011,08,14,08,49,14.80
2011,08,14,08,50,14.90
2011,08,14,08,51,15.00
2011,08,14,08,52,15.00
2011,08,14,08,53,15.00
2011,08,14,08,54,15.20
2011,08,14,08,55,15.30
2011,08,14,08,56,15.40
2011,08,14,08,57,15.40
2011,08,14,08,58,15.40
2011,08,14,08,59,15.50
2011,08,14,09,00,15.50
2011,08,14,09,01,15.50
2011,08,14,09,02,15.60
2011,08,14,09,03,15.60
2011,08,14,09,04,15.60
2011,08,14,09,05,15.60
2011,08,14,09,06,15.60
2011,08,14,09,07,15.60
2011,08,14,09,08,15.70
2011,08,14,09,09,15.80
2011,08,14,09,10,15.90
2011,08,14,09,11,16.00
2011,08,14,09,12,16.10
2011,08,14,09,13,16.20
2011,08,14,09,14,16.30
2011,08,14,09,15,16.30
2011,08,14,09,16,16.20
2011,08,14,09,17,16.20
2011,08,14,09,18,16.20
2011,08,14,09,19,16.20
2011,08,14,09,20,16.20
2011,08,14,09,21,16.20
2011,08,14,09,22,16.30
2011,08,14,09,23,16.30
2011,08,14,09,24,16.30
2011,08,14,09,25,16.40
2011,08,14,09,26,16.50
2011,08,14,09,27,16.60
2011,08,14,09,28,16.70
2011,08,14,09,29,16.70
2011,08,14,09,30,16.80
2011,08,14,09,31,16.90
2011,08,14,09,32,17.00
2011,08,14,09,33,17.10
2011,08,14,09,34,17.10
2011,08,14,09,35,17.10
2011,08,14,09,36,17.20
2011,08,14,09,37,17.20
2011,08,14,09,38,17.30
2011,08,14,09,39,17.40
2011,08,14,09,40,17.40
2011,08,14,09,41,17.40
2011,08,14,09,42,17.40
2011,08,14,09,43,17.40
2011,08,14,09,44,17.40
2011,08,14,09,45,17.30
2011,08,14,09,46,17.40
2011,08,14,09,47,17.40
2011,08,14,09,48,17.40
2011,08,14,09,49,17.50
2011,08,14,09,50,17.50
2011,08,14,09,51,17.60
2011,08,14,09,52,17.60
2011,08,14,09,53,17.70
2011,08,14,09,54,17.70
2011,08,14,09,55,17.70
2011,08,14,09,56,17.60
2011,08,14,09,57,17.60
2011,08,14,09,58,17.60
2011,08,14,09,59,17.60
2011,08,14,10,00,17.60
2011,08,14,10,01,17.60
2011,08,14,10,02,17.60
2011,08,14,10,03,17.50
2011,08,14,10,04,17.50
2011,08,14,10,05,17.40
2011,08,14,10,06,17.30
2011,08,14,10,07,17.20
2011,08,14,10,08,17.20
2011,08,14,10,09,17.10
2011,08,14,10,10,17.00
2011,08,14,10,11,16.90
2011,08,14,10,12,16.80
2011,08,14,10,13,16.70
2011,08,14,10,14,16.70
2011,08,14,10,15,16.70
2011,08,14,10,16,16.60
2011,08,14,10,17,16.60
2011,08,14,10,18,16.60
2011,08,14,10,19,16.50
2011,08,14,10,20,16.50
2011,08,14,10,21,16.50
2011,08,14,10,22,16.50
2011,08,14,10,23,16.50
2011,08,14,10,24,16.50
2011,08,14,10,25,16.50
2011,08,14,10,26,16.50
2011,08,14,10,27,16.50
2011,08,14,10,28,16.50
2011,08,14,10,29,16.50
2011,08,14,10,30,16.50
2011,08,14,10,31,16.50
2011,08,14,10,32,16.60
2011,08,14,10,33,16.60
2011,08,14,10,34,16.60
2011,08,14,10,35,16.70
2011,08,14,10,36,16.80
2011,08,14,10,37,16.80
2011,08,14,10,38,16.90
2011,08,14,10,39,17.10
2011,08,14,10,40,17.20
2011,08,14,10,41,17.40
2011,08,14,10,42,17.60
2011,08,14,10,43,17.70
2011,08,14,10,44,17.80
2011,08,14,10,45,17.90
2011,08,14,10,46,18.00
2011,08,14,10,47,18.10
2011,08,14,10,48,18.10
2011,08,14,10,49,18.20
2011,08,14,10,50,18.30
2011,08,14,10,51,18.40
2011,08,14,10,52,18.50
2011,08,14,10,53,18.60
2011,08,14,10,54,18.70
2011,08,14,10,55,18.70
2011,08,14,10,56,18.70
2011,08,14,10,57,18.70
2011,08,14,10,58,18.70
2011,08,14,10,59,18.70
2011,08,14,11,00,18.70
2011,08,14,11,01,18.60
2011,08,14,11,02,18.60
2011,08,14,11,03,18.70
2011,08,14,11,04,18.80
2011,08,14,11,05,19.00
2011,08,14,11,06,19.20
2011,08,14,11,07,19.30
2011,08,14,11,08,19.30
2011,08,14,11,09,19.10
2011,08,14,11,10,19.00
2011,08,14,11,11,18.90
2011,08,14,11,12,18.90
2011,08,14,11,13,18.90
2011,08,14,11,14,18.90
2011,08,14,11,15,18.90
2011,08,14,11,16,18.90
2011,08,14,11,17,19.00
2011,08,14,11,18,19.00
2011,08,14,11,19,19.00
2011,08,14,11,20,18.90
2011,08,14,11,21,18.80
2011,08,14,11,22,18.70
2011,08,14,11,23,18.70
2011,08,14,11,24,18.50
2011,08,14,11,25,18.30
2011,08,14,11,26,18.10
2011,08,14,11,27,18.00
2011,08,14,11,28,17.90
2011,08,14,11,29,17.90
2011,08,14,11,30,17.80
2011,08,14,11,31,17.90
2011,08,14,11,32,18.00
2011,08,14,11,33,18.10
2011,08,14,11,34,18.20
2011,08,14,11,35,18.30
2011,08,14,11,36,18.40
2011,08,14,11,37,18.50
2011,08,14,11,38,18.60
2011,08,14,11,39,18.80
2011,08,14,11,40,18.80
2011,08,14,11,41,18.90
2011,08,14,11,42,18.90
2011,08,14,11,43,18.90
2011,08,14,11,44,18.80
2011,08,14,11,45,18.70
2011,08,14,11,46,18.50
2011,08,14,11,47,18.40
2011,08,14,11,48,18.30
2011,08,14,11,49,18.30
2011,08,14,11,50,18.20
2011,08,14,11,51,18.20
2011,08,14,11,52,18.20
2011,08,14,11,53,18.20
2011,08,14,11,54,18.20
2011,08,14,11,55,18.20
2011,08,14,11,56,18.20
2011,08,14,11,57,18.20
2011,08,14,11,58,18.20
2011,08,14,11,59,18.30
2011,08,14,12,00,18.30
2011,08,14,12,01,18.40
2011,08,14,12,02,18.30
2011,08,14,12,03,18.30
2011,08,14,12,04,18.30
2011,08,14,12,05,18.40
2011,08,14,12,06,18.40
2011,08,14,12,07,18.50
2011,08,14,12,08,18.50
2011,08,14,12,09,18.50
2011,08,14,12,10,18.60
2011,08,14,12,11,18.60
2011,08,14,12,12,18.60
2011,08,14,12,13,18.60
2011,08,14,12,14,18.50
2011,08,14,12,15,18.50
2011,08,14,12,16,18.50
2011,08,14,12,17,18.50
2011,08,14,12,18,18.40
2011,08,14,12,19,18.40
2011,08,14,12,20,18.30
2011,08,14,12,21,18.30
2011,08,14,12,22,18.10
2011,08,14,12,23,18.00
2011,08,14,12,24,17.90
2011,08,14,12,25,17.90
2011,08,14,12,26,18.00
2011,08,14,12,27,18.00
2011,08,14,12,28,18.10
2011,08,14,12,29,18.20
2011,08,14,12,30,18.20
2011,08,14,12,31,18.20
2011,08,14,12,32,18.20
2011,08,14,12,33,18.20
2011,08,14,12,34,18.20
2011,08,14,12,35,18.30
2011,08,14,12,36,18.30
2011,08,14,12,37,18.30
2011,08,14,12,38,18.20
2011,08,14,12,39,18.20
2011,08,14,12,40,18.20
2011,08,14,12,41,18.20
2011,08,14,12,42,18.20
2011,08,14,12,43,18.20
2011,08,14,12,44,18.20
2011,08,14,12,45,18.30
2011,08,14,12,46,18.30
2011,08,14,12,47,18.50
2011,08,14,12,48,18.70
2011,08,14,12,49,18.90
2011,08,14,12,50,19.00
2011,08,14,12,51,19.20
2011,08,14,12,52,19.20
2011,08,14,12,53,19.20
2011,08,14,12,54,19.10
2011,08,14,12,55,19.00
2011,08,14,12,56,18.90
2011,08,14,12,57,18.80
2011,08,14,12,58,18.70
2011,08,14,12,59,18.60
2011,08,14,13,00,18.60
2011,08,14,13,01,18.70
2011,08,14,13,02,18.60
2011,08,14,13,03,18.70
2011,08,14,13,04,18.70
2011,08,14,13,05,18.70
2011,08,14,13,06,18.70
2011,08,14,13,07,18.70
2011,08,14,13,08,18.80
2011,08,14,13,09,18.80
2011,08,14,13,10,18.90
2011,08,14,13,11,18.90
2011,08,14,13,12,19.00
2011,08,14,13,13,19.10
2011,08,14,13,14,19.10
2011,08,14,13,15,19.00
2011,08,14,13,16,19.00
2011,08,14,13,17,19.00
2011,08,14,13,18,18.90
2011,08,14,13,19,18.90
2011,08,14,13,20,18.90
2011,08,14,13,21,18.80
2011,08,14,13,22,18.80
2011,08,14,13,23,18.80
2011,08,14,13,24,18.70
2011,08,14,13,25,18.70
2011,08,14,13,26,18.60
2011,08,14,13,27,18.60
2011,08,14,13,28,18.50
2011,08,14,13,29,18.40
2011,08,14,13,30,18.30
2011,08,14,13,31,18.30
2011,08,14,13,32,18.30
2011,08,14,13,33,18.20
2011,08,14,13,34,18.30
2011,08,14,13,35,18.30
2011,08,14,13,36,18.30
2011,08,14,13,37,18.30
2011,08,14,13,38,18.30
2011,08,14,13,39,18.30
2011,08,14,13,40,18.20
2011,08,14,13,41,18.20
2011,08,14,13,42,18.10
2011,08,14,13,43,18.10
2011,08,14,13,44,18.10
2011,08,14,13,45,18.10
2011,08,14,13,46,18.10
2011,08,14,13,47,18.10
2011,08,14,13,48,18.10
2011,08,14,13,49,18.20
2011,08,14,13,50,18.20
2011,08,14,13,51,18.30
2011,08,14,13,52,18.30
2011,08,14,13,53,18.30
2011,08,14,13,54,18.30
2011,08,14,13,55,18.40
2011,08,14,13,56,18.40
2011,08,14,13,57,18.50
2011,08,14,13,58,18.40
2011,08,14,13,59,18.50
2011,08,14,14,00,18.50
2011,08,14,14,01,18.50
2011,08,14,14,02,18.50
2011,08,14,14,03,18.60
2011,08,14,14,04,18.60
2011,08,14,14,05,18.60
2011,08,14,14,06,18.60
2011,08,14,14,07,18.60
2011,08,14,14,08,18.60
2011,08,14,14,09,18.50
2011,08,14,14,10,18.50
2011,08,14,14,11,18.50
2011,08,14,14,12,18.50
2011,08,14,14,13,18.40
2011,08,14,14,14,18.40
2011,08,14,14,15,18.40
2011,08,14,14,16,18.40
2011,08,14,14,17,18.50
2011,08,14,14,18,18.40
2011,08,14,14,19,18.30
2011,08,14,14,20,18.30
2011,08,14,14,21,18.20
2011,08,14,14,22,18.10
2011,08,14,14,23,18.10
2011,08,14,14,24,18.10
2011,08,14,14,25,18.00
2011,08,14,14,26,18.00
2011,08,14,14,27,17.90
2011,08,14,14,28,17.90
2011,08,14,14,29,17.90
2011,08,14,14,30,17.90
2011,08,14,14,31,17.90
2011,08,14,14,32,17.90
2011,08,14,14,33,17.90
2011,08,14,14,34,17.90
2011,08,14,14,35,17.90
2011,08,14,14,36,17.80
2011,08,14,14,37,17.80
2011,08,14,14,38,17.80
2011,08,14,14,39,17.80
2011,08,14,14,40,17.80
2011,08,14,14,41,17.80
2011,08,14,14,42,17.80
2011,08,14,14,43,17.80
2011,08,14,14,44,17.80
2011,08,14,14,45,17.80
2011,08,14,14,46,17.80
2011,08,14,14,47,17.80
2011,08,14,14,48,17.80
2011,08,14,14,49,17.90
2011,08,14,14,50,17.90
2011,08,14,14,51,17.90
2011,08,14,14,52,17.90
2011,08,14,14,53,17.90
2011,08,14,14,54,17.90
2011,08,14,14,55,17.90
2011,08,14,14,56,17.80
2011,08,14,14,57,17.80
2011,08,14,14,58,17.80
2011,08,14,14,59,17.70
2011,08,14,15,00,17.70
2011,08,14,15,01,17.70
2011,08,14,15,02,17.60
2011,08,14,15,03,17.60
2011,08,14,15,04,17.50
2011,08,14,15,05,17.50
2011,08,14,15,06,17.40
2011,08,14,15,07,17.30
2011,08,14,15,08,17.30
2011,08,14,15,09,17.30
2011,08,14,15,10,17.30
2011,08,14,15,11,17.30
2011,08,14,15,12,17.20
2011,08,14,15,13,17.30
2011,08,14,15,14,17.30
2011,08,14,15,15,17.30
2011,08,14,15,16,17.30
2011,08,14,15,17,17.30
2011,08,14,15,18,17.30
2011,08,14,15,19,17.30
2011,08,14,15,20,17.40
2011,08,14,15,21,17.40
2011,08,14,15,22,17.40
2011,08,14,15,23,17.50
2011,08,14,15,24,17.50
2011,08,14,15,25,17.60
2011,08,14,15,26,17.60
2011,08,14,15,27,17.60
2011,08,14,15,28,17.70
2011,08,14,15,29,17.70
2011,08,14,15,30,17.70
2011,08,14,15,31,17.70
2011,08,14,15,32,17.70
2011,08,14,15,33,17.70
2011,08,14,15,34,17.70
2011,08,14,15,35,17.70
2011,08,14,15,36,17.70
2011,08,14,15,37,17.70
2011,08,14,15,38,17.70
2011,08,14,15,39,17.70
2011,08,14,15,40,17.80
2011,08,14,15,41,17.80
2011,08,14,15,42,17.90
2011,08,14,15,43,17.90
2011,08,14,15,44,17.90
2011,08,14,15,45,18.00
2011,08,14,15,46,18.00
2011,08,14,15,47,18.00
2011,08,14,15,48,18.10
2011,08,14,15,49,18.10
2011,08,14,15,50,18.20
2011,08,14,15,51,18.20
2011,08,14,15,52,18.20
2011,08,14,15,53,18.30
2011,08,14,15,54,18.30
2011,08,14,15,55,18.40
2011,08,14,15,56,18.40
2011,08,14,15,57,18.40
2011,08,14,15,58,18.40
2011,08,14,15,59,18.40
2011,08,14,16,00,18.30
2011,08,14,16,01,18.30
2011,08,14,16,02,18.30
2011,08,14,16,03,18.30
2011,08,14,16,04,18.30
2011,08,14,16,05,18.30
2011,08,14,16,06,18.30
2011,08,14,16,07,18.30
2011,08,14,16,08,18.30
2011,08,14,16,09,18.20
2011,08,14,16,10,18.20
2011,08,14,16,11,18.20
2011,08,14,16,12,18.20
2011,08,14,16,13,18.20
2011,08,14,16,14,18.20
2011,08,14,16,15,18.20
2011,08,14,16,16,18.20
2011,08,14,16,17,18.20
2011,08,14,16,18,18.20
2011,08,14,16,19,18.20
2011,08,14,16,20,18.10
2011,08,14,16,21,18.10
2011,08,14,16,22,18.00
2011,08,14,16,23,18.00
2011,08,14,16,24,18.00
2011,08,14,16,25,17.90
2011,08,14,16,26,17.90
2011,08,14,16,27,17.90
2011,08,14,16,28,17.80
2011,08,14,16,29,17.80
2011,08,14,16,30,17.80
2011,08,14,16,31,17.80
2011,08,14,16,32,17.90
2011,08,14,16,33,17.90
2011,08,14,16,34,17.90
2011,08,14,16,35,17.90
2011,08,14,16,36,18.00
2011,08,14,16,37,18.00
2011,08,14,16,38,18.10
2011,08,14,16,39,18.10
2011,08,14,16,40,18.10
2011,08,14,16,41,18.20
2011,08,14,16,42,18.20
2011,08,14,16,43,18.20
2011,08,14,16,44,18.30
2011,08,14,16,45,18.30
2011,08,14,16,46,18.30
2011,08,14,16,47,18.40
2011,08,14,16,48,18.40
2011,08,14,16,49,18.50
2011,08,14,16,50,18.50
2011,08,14,16,51,18.50
2011,08,14,16,52,18.60
2011,08,14,16,53,18.60
2011,08,14,16,54,18.60
2011,08,14,16,55,18.70
2011,08,14,16,56,18.70
2011,08,14,16,57,18.70
2011,08,14,16,58,18.70
2011,08,14,16,59,18.70
2011,08,14,17,00,18.70
2011,08,14,17,01,18.60
2011,08,14,17,02,18.70
2011,08,14,17,03,18.70
2011,08,14,17,04,18.70
2011,08,14,17,05,18.60
2011,08,14,17,06,18.60
2011,08,14,17,07,18.60
2011,08,14,17,08,18.60
2011,08,14,17,09,18.60
2011,08,14,17,10,18.50
2011,08,14,17,11,18.50
2011,08,14,17,12,18.40
2011,08,14,17,13,18.40
2011,08,14,17,14,18.40
2011,08,14,17,15,18.40
2011,08,14,17,16,18.40
2011,08,14,17,17,18.30
2011,08,14,17,18,18.20
2011,08,14,17,19,18.20